Location: Coed Ely
(51.5661°N, 3.4150°W)
Time: 22:08:53
(UTC+00:00)

CSL-04 Rocket - Pass Details

Date: 28 January 2021
Orbit: 806 x 860 km, 98.9° (Epoch: 01 March)

Event Time Altitude Azimuth Distance (km) Brightness Sun altitude
Rises 19:38:04 0° 177° (S) 3,375 6.8 -25.0°
Reaches altitude 10° 19:40:28 10° 182° (S) 2,453 6.1 -25.4°
Maximum altitude 19:45:47 54° 259° (W) 1,027 4.4 -26.2°
Drops below altitude 10° 19:51:14 10° 337° (NNW) 2,499 6.5 -27.1°
Sets 19:53:42 0° 342° (NNW) 3,444 7.2 -27.4°
